Погода Пушкинские Горы

Погода Пушкинские Горы : погода сейчас, прогноз погоды и архив. Всё, что Вы хотите узнать о погоде Пушкинские Горы!

Хотите узнать прогноз погоды Пушкинские Горы? Тогда Вам сюда: Погода Пушкинские Горы

Поиск расширенной информации на нашем сайте:

Другие новости

Новости СМИ2

Главная страница сайта

Новости сайта

03.07.2017

Напоминаем, что на нашем специализированном сайте Метеоцентр.Азия вы можете получить высокодетализированные автоматические прогнозы погоды по пунктам России, СНГ и мира в авиационном формате (включающие направление и скорость ветра, видимость, явления погоды, количество и форму облачности, нижнюю и верхнюю границу облачности).


Погода Пушкинские Горы - сегодня

Время (UTC), дата Ветер
(°,м/с) 
Видим.   Явления Облачность Т
(°С)
Тd
(°С)
f(%) Тe
(°С)
Pmin
(гПа)
dP
(гПа)
Po
(мм)
O2
(г/м3)
Тmin Tmax R s Состояние
почвы
21 11.08.18 020 (С) 10 км  слаб. ливневой дождь  10/10 300 м кучево-дожд. 
[Cb cap]
+16.1 +15.2 94 +26  1013.7  -2.1  751  283           
09 12.08.18 230 (ЮЗ) 20000 м    9/8 600 м кучево-дожд., верхняя 
[Cb cap|Ci fib]
+18.3 +13.2 72 +25  1010.6  -0.3  749  280           
12 12.08.18 220 (ЮЗ) 20000 м    8/8 600 м кучево-дожд., верхняя 
[Cb cap|Ci fib]
+20 +9.4 50 +20  1008.8  -1.7  748  279           
21 12.08.18 210 (ЮЗ) 20000 м    8/5 600 м кучево-дожд., верхняя 
[Cb cap|Ci fib]
+13.4 +9.3 76 +13  1008.9  -0.3  747  285           
00 13.08.18 220 (ЮЗ) 20000 м    8/5 600 м кучево-дожд., верхняя 
[Cb cap|Ci fib]
+13.3 +9.6 78 +14  1008.4  -0.5  747  285           
09 13.08.18 250 (З) 4{11}  20000 м    9/0 кучево-дожд., верхняя 
[Cb cap|Ci fib]
+17.6 +10 61 +19  1009.4  0.6  748  281           
15 13.08.18 350 (С) 20000 м    9/6 1000 м кучево-дожд., верхняя 
[Cb cap|Ci fib]
+20 +12.1 60 +24  1010.4  0.3  749  279      0.0     
21 13.08.18 150 (ЮВ) 20000 м    ясно 
+11.2 +9.8 91 +13  1012.3  0.8  750  288           
00 14.08.18 150 (ЮВ) 20000 м    ясно 
+10.3 +9.8 97 +12  1013.3  0.9  751  290           
09 14.08.18 180 (Ю) 20000 м    9/8 1000 м верхняя 
[Cu med, cong|Ci fib]
+20.4 +10.8 54 +23  1014.1  -0.1  752  280           
12 14.08.18 180 (Ю) 20000 м    9/5 1000 м средняя, верхняя 
[Cu med, cong|Ac trans|Ci fib]
+22.2 +10.2 46 +24  1013.2  -0.9  751  278           
15 14.08.18 170 (Ю) 20000 м    8/1 1000 м средняя, верхняя 
[Cu hum|Ac trans|Ci fib]
+21.8 +11.5 52 +25  1011.8  -1.3  750  278           
21 14.08.18 150 (ЮВ) 20000 м  слаб. ливневой дождь  10/10 300 м кучево-дожд. 
[Cb cap]
+18 +14.1 78 +26  1010.2  -1.6  749  280           
09 15.08.18 250 (З) 10 км    10/10 300 м кучево-дожд. 
[Cb cap]
+19.2 +17.1 88 +33  1007.6  1.3  747  277           
21 15.08.18 030 (СВ) 4000 м  дымка{ливн. осадки}  8/8 600 м кучево-дожд. 
[Cb cap]
+15.4 +15.2 99 +26  1013.1  1.2  751  283           
09 16.08.18 030 (СВ) 20000 м    10/10 300 м кучево-дожд. 
[Cb cap]
+16.5 +14.9 90 +26  1019.5  1.6  755  284           
12 16.08.18 270 (З) 20000 м    9/8 600 м кучево-дожд., верхняя 
[Cb cap|Ci fib]
+19.5 +14 71 +28  1020.3  0.9  756  282           
15 16.08.18 090 (В) 20000 м    8/6 600 м кучево-дожд., верхняя 
[Cb cap|Ci fib]
+20.6 +13.9 65 +27  1020.5  0.2  756  281           
21 16.08.18 090 (В) 10 км    3/0 верхняя 
[Ci fib]
+13.3 +13 98 +20  1022.2  0.8  757  288           
09 17.08.18 130 (ЮВ) 20000 м    6/6 600 м 
[Cu med, cong]
+20.8 +13.8 64 +27  1023.3  -0.3  758  281           
12 17.08.18 180 (Ю) 20000 м    8/8 1000 м 
[Cu med, cong]
+22.5 +13.5 57 +28  1022.5  -0.7  758  279           
15 17.08.18 160 (Ю) 20000 м    3/3 1000 м 
[Cu med, cong]
+23.2 +14 56 +30  1021.4  -1.1  757  278           
21 17.08.18 140 (ЮВ) 20000 м    ясно 
+16.6 +13.7 83 +23  1021.5  0.5  757  285           
00 18.08.18 130 (ЮВ) 20000 м    ясно 
+15.6 +13.5 87 +22  1021.4  -0.1  757  286           
09 18.08.18 170 (Ю) 20000 м    6/4 1000 м средняя 
[Cu med, cong|Ac trans]
+24.5 +17 63 +37  1019.8  -0.6  756  276           
Время (UTC), дата Ветер
(°,м/с) 
Видим.   Явления Облачность Т
(°С)
Тd
(°С)
f(%) Тe
(°С)
Pmin
(гПа)
dP
(гПа)
Po
(мм)
O2
(г/м3)
Тmin Tmax R s Состояние
почвы

Для получения пояснительной информации подведите курсор к названию столбца.

ПОГОДА Пушкинские Горы - архив

Всё, что Вы хотите узнать о погоде Пушкинские Горы - удобно и подробно!

Выберите нужную дату (начиная с 1 января 2015* года) и нажмите кнопку "Найти".
Будут отображены архивные сводки погоды по пункту Пушкинские Горы, начиная с указанной даты.


Отображать данные в формате CSV (для использования в таблицах Excel)


Внимание! Наш архив погоды предназначен исключительно для личного некоммерческого использования в познавательных целях. Если Вам необходимы официальные справки о состоянии погоды (для производственных, юридических, коммерческих и т.п. целей), обращайтесь в органы Росгидромета.

*Примечание: данная дата относится к архиву по метеостанциям СССР (Россия, СНГ, Балтия).
Архив по метеостанциям Зарубежной Европы и Азии (кроме Китая) хранится 10 дней, по другим регионам земного шара (Китай, Африка, Америка, Австралия, Океания) - 1 день.

Пушкинские Горы - район местоположения метеостанции


Название, широта, долгота, высота метеостанции:
Пушкинские Горы 57°ш. 28.9°д. 108 м над ур. моря [Российская Федерация]

Дополнительная информация

В oтличие oт бoльшинства пoгoдных сайтoв мы публикуем пoдрoбную метеoинфoрмацию в детальнoм прoфессиoнальнoм фoрмате.

Характеристики температуры и влажнoсти вoздуха измеряются на высoте 2 м в тени вдали oт зданий и деревьев.
Скoрoсть ветра измеряется на высoте 10 м (на урoвне рoста челoвека скoрoсть ветра ниже в 1.5-2 раза). Если метеoстанция нахoдится в гoрoде или в лесу, тo скoрoсть ветра занижена на 2-4 м/с пo сравнению с oткрытым местoм. Скoрoсть ветра над акватoриями крупных рек и oзёр, а также на вершинах хoлмoв на 2-5 м/с выше, чем в oбычных услoвиях.
Атмoсфернoе давление в разных тoчках местнoсти мoжет значительнo oтличаться oт давления на метеoстанции, в зависимoсти oт услoвий рельефа (при пoдъёме на 10 м давление пoнижается примернo на 1 мм рт.ст.).